Location: Unspecified
(58.7730°N, 5.8460°E)
Time: 15:07:20
(UTC+02:00)

Resurs 1-4 Rocket - Visible Passes

Search period start: 23 July 2016 00:00
Search period end: 02 August 2016 00:00
Orbit: 800 x 814 km, 98.4° (Epoch: 22 July)

Date Brightness Start Highest point End Pass type
(mag) Time Alt. Az. Time Alt. Az. Time Alt. Az.
24 Jul 3.7 03:40:20 10° NNE 03:44:57 30° E 03:49:32 10° SSE visible
25 Jul 4.2 03:16:09 10° NE 03:20:06 21° E 03:24:02 10° SE visible
26 Jul 4.5 02:52:19 10° NE 02:55:09 14° E 02:57:59 10° ESE visible
27 Jul 3.1 04:06:23 10° NNE 04:11:27 43° E 04:16:27 10° S visible
28 Jul 3.7 03:42:01 10° NNE 03:46:41 30° E 03:51:18 10° SSE visible
29 Jul 4.2 03:17:49 10° NE 03:21:49 21° E 03:25:49 10° SE visible
30 Jul 4.5 02:53:57 10° NE 02:56:54 15° E 02:59:50 10° ESE visible
31 Jul 3.1 04:08:04 10° NNE 04:13:10 45° E 04:18:11 10° S visible
01 Aug 3.6 03:43:42 10° NNE 03:48:24 31° E 03:53:04 10° SSE visible
